Location: Unspecified
(0.0000°N, 0.0000°E)
Time: 17:24:58
(UTC+00:00)

STARLINK 1056 - Pass Details

Date: 23 January 2020
Orbit: 549 x 551 km, 53.0° (Epoch: 23 January)

Event Time Altitude Azimuth Distance (km) Brightness Sun altitude
Exits shadow 04:50:19 43° 259° (W) 769 3.9 -19.1°
Maximum altitude 04:51:13 54° 304° (WNW) 669 3.6 -18.9°
Drops below altitude 10° 04:55:14 10° 22° (NNE) 1,810 6.3 -18.0°
Sets 04:57:30 0° 26° (NNE) 2,700 7.2 -17.4°
